TimeCST,TemperatureF,Dew PointF,Humidity,Sea Level PressureIn,VisibilityMPH,Wind Direction,Wind SpeedMPH,Gust SpeedMPH,PrecipitationIn,Events,Conditions,WindDirDegrees,DateUTC
12:08 AM,32.0,32.0,100,29.80,5.0,Calm,Calm,-,N/A,Rain,Light Freezing Rain,0,2013-12-21 06:08:00
12:18 AM,32.0,32.0,100,29.81,5.0,Calm,Calm,-,N/A,Rain,Light Freezing Rain,0,2013-12-21 06:18:00
12:28 AM,32.0,32.0,100,29.82,4.0,Calm,Calm,-,N/A,Rain,Light Freezing Rain,0,2013-12-21 06:28:00
12:38 AM,32.0,32.0,100,29.79,4.0,Calm,Calm,-,N/A,Rain,Light Freezing Rain,0,2013-12-21 06:38:00
12:45 AM,32.0,32.0,100,29.77,4.0,Calm,Calm,-,N/A,Rain,Light Freezing Rain,0,2013-12-21 06:45:00
12:50 AM,32.0,32.0,100,29.78,4.0,Calm,Calm,-,N/A,Rain,Light Freezing Rain,0,2013-12-21 06:50:00
12:56 AM,32.0,32.0,100,29.78,5.0,Calm,Calm,-,N/A,Rain,Light Freezing Rain,0,2013-12-21 06:56:00
12:58 AM,31.6,31.5,99,29.81,5.0,Calm,Calm,-,0.16,Rain,Light Freezing Rain,0,2013-12-21 06:58:00
1:03 AM,32.0,32.0,100,29.80,5.0,Calm,Calm,-,N/A,Rain,Light Freezing Rain,0,2013-12-21 07:03:00
1:08 AM,32.0,32.0,100,29.81,5.0,Calm,Calm,-,N/A,Rain,Light Freezing Rain,0,2013-12-21 07:08:00
1:15 AM,32.0,32.0,100,29.80,5.0,Calm,Calm,-,N/A,Rain,Light Freezing Rain,0,2013-12-21 07:15:00
1:16 AM,32.0,32.0,100,29.80,5.0,Calm,Calm,-,N/A,Rain,Light Freezing Rain,0,2013-12-21 07:16:00
1:22 AM,32.0,32.0,100,29.80,5.0,Calm,Calm,-,N/A,,Overcast,0,2013-12-21 07:22:00
1:27 AM,32.0,32.0,100,29.79,5.0,Calm,Calm,-,N/A,,Overcast,0,2013-12-21 07:27:00
1:28 AM,32.0,32.0,100,29.79,5.0,Calm,Calm,-,N/A,,Overcast,0,2013-12-21 07:28:00
1:48 AM,32.0,32.0,100,29.78,5.0,Calm,Calm,-,N/A,,Overcast,0,2013-12-21 07:48:00
1:58 AM,31.6,31.5,99,29.82,6.0,Calm,Calm,-,0.04,,Overcast,0,2013-12-21 07:58:00
2:18 AM,32.0,32.0,100,29.76,6.0,Calm,Calm,-,N/A,,Overcast,0,2013-12-21 08:18:00
2:21 AM,32.0,32.0,100,29.77,5.0,Calm,Calm,-,N/A,,Overcast,0,2013-12-21 08:21:00
2:31 AM,32.0,32.0,100,29.77,5.0,Calm,Calm,-,N/A,,Overcast,0,2013-12-21 08:31:00
2:35 AM,32.0,32.0,100,29.77,5.0,Calm,Calm,-,N/A,,Overcast,0,2013-12-21 08:35:00
2:40 AM,32.0,32.0,100,29.76,5.0,Calm,Calm,-,N/A,,Overcast,0,2013-12-21 08:40:00
2:45 AM,32.0,32.0,100,29.76,5.0,Calm,Calm,-,N/A,,Overcast,0,2013-12-21 08:45:00
2:55 AM,32.0,32.0,100,29.76,5.0,Calm,Calm,-,N/A,,Overcast,0,2013-12-21 08:55:00
2:58 AM,31.8,31.6,99,29.78,5.0,Calm,Calm,-,0.02,,Overcast,0,2013-12-21 08:58:00
3:18 AM,32.0,32.0,100,29.74,5.0,Calm,Calm,-,N/A,,Overcast,0,2013-12-21 09:18:00
3:23 AM,32.0,32.0,100,29.75,5.0,Calm,Calm,-,N/A,,Overcast,0,2013-12-21 09:23:00
3:28 AM,32.0,32.0,100,29.75,5.0,Calm,Calm,-,N/A,,Overcast,0,2013-12-21 09:28:00
3:33 AM,32.0,32.0,100,29.74,5.0,Calm,Calm,-,N/A,,Overcast,0,2013-12-21 09:33:00
3:43 AM,32.0,32.0,100,29.73,5.0,Calm,Calm,-,N/A,,Overcast,0,2013-12-21 09:43:00
3:58 AM,31.8,31.6,99,29.75,6.0,Calm,Calm,-,0.02,,Overcast,0,2013-12-21 09:58:00
4:18 AM,32.0,32.0,100,29.71,6.0,Calm,Calm,-,N/A,,Overcast,0,2013-12-21 10:18:00
4:43 AM,32.0,32.0,100,29.69,5.0,Calm,Calm,-,N/A,,Overcast,0,2013-12-21 10:43:00
4:44 AM,32.0,32.0,100,29.69,4.0,Calm,Calm,-,N/A,Rain,Light Freezing Rain,0,2013-12-21 10:44:00
4:45 AM,32.0,32.0,100,29.69,4.0,Calm,Calm,-,N/A,Rain,Light Freezing Rain,0,2013-12-21 10:45:00
4:58 AM,31.6,31.5,99,29.72,5.0,Calm,Calm,-,0.02,Rain,Light Freezing Rain,0,2013-12-21 10:58:00
5:09 AM,32.0,32.0,100,29.70,5.0,Calm,Calm,-,N/A,Rain,Light Freezing Rain,0,2013-12-21 11:09:00
5:24 AM,32.0,32.0,100,29.68,5.0,Calm,Calm,-,N/A,Rain,Light Freezing Rain,0,2013-12-21 11:24:00
5:27 AM,32.0,32.0,100,29.67,5.0,Calm,Calm,-,N/A,Rain,Light Freezing Rain,0,2013-12-21 11:27:00
5:47 AM,32.0,32.0,100,29.67,5.0,Calm,Calm,-,N/A,Rain,Light Freezing Rain,0,2013-12-21 11:47:00
5:52 AM,32.0,32.0,100,29.63,6.0,Calm,Calm,-,N/A,,Light Freezing Drizzle,0,2013-12-21 11:52:00
5:58 AM,31.3,31.1,99,29.72,6.0,Calm,Calm,-,0.03,,Light Freezing Drizzle,0,2013-12-21 11:58:00
6:20 AM,32.0,32.0,100,29.67,6.0,Calm,Calm,-,N/A,,Overcast,0,2013-12-21 12:20:00
6:40 AM,32.0,32.0,100,29.65,6.0,Calm,Calm,-,N/A,,Overcast,0,2013-12-21 12:40:00
6:42 AM,32.0,32.0,100,29.66,6.0,Calm,Calm,-,N/A,,Overcast,0,2013-12-21 12:42:00
6:57 AM,32.0,32.0,100,29.67,5.0,Calm,Calm,-,N/A,,Overcast,0,2013-12-21 12:57:00
6:58 AM,31.5,31.3,99,29.70,5.0,Calm,Calm,-,0.00,,Overcast,0,2013-12-21 12:58:00
7:03 AM,32.0,32.0,100,29.66,5.0,Calm,Calm,-,N/A,,Overcast,0,2013-12-21 13:03:00
7:13 AM,32.0,32.0,100,29.65,5.0,Calm,Calm,-,N/A,,Overcast,0,2013-12-21 13:13:00
7:30 AM,32.0,32.0,100,29.66,5.0,Calm,Calm,-,N/A,,Overcast,0,2013-12-21 13:30:00
7:34 AM,32.0,32.0,100,29.66,5.0,Calm,Calm,-,N/A,,Light Drizzle,0,2013-12-21 13:34:00
7:44 AM,32.0,32.0,100,29.66,4.0,Calm,Calm,-,N/A,,Overcast,0,2013-12-21 13:44:00
7:52 AM,32.0,32.0,100,29.65,4.0,Calm,Calm,-,N/A,Rain,Light Freezing Rain,0,2013-12-21 13:52:00
7:54 AM,32.0,32.0,100,29.63,4.0,Calm,Calm,-,N/A,Rain,Light Freezing Rain,0,2013-12-21 13:54:00
7:58 AM,31.1,30.9,99,29.68,3.0,Calm,Calm,-,0.01,Rain,Light Freezing Rain,0,2013-12-21 13:58:00
8:03 AM,32.0,32.0,100,29.67,3.0,Calm,Calm,-,N/A,Rain,Light Freezing Rain,0,2013-12-21 14:03:00
8:06 AM,32.0,32.0,100,29.67,2.5,Calm,Calm,-,N/A,Rain,Light Freezing Rain,0,2013-12-21 14:06:00
8:11 AM,32.0,32.0,100,29.67,3.0,Calm,Calm,-,N/A,Rain,Light Freezing Rain,0,2013-12-21 14:11:00
8:32 AM,32.0,32.0,100,29.66,3.0,Calm,Calm,-,N/A,Rain,Light Freezing Rain,0,2013-12-21 14:32:00
8:37 AM,32.0,32.0,100,29.67,2.5,Calm,Calm,-,N/A,Rain,Light Freezing Rain,0,2013-12-21 14:37:00
8:42 AM,32.0,32.0,100,29.68,2.5,Calm,Calm,-,N/A,Rain,Light Freezing Rain,0,2013-12-21 14:42:00
8:47 AM,32.0,32.0,100,29.68,3.0,Calm,Calm,-,N/A,Rain,Light Freezing Rain,0,2013-12-21 14:47:00
8:52 AM,32.0,32.0,100,29.68,3.0,Calm,Calm,-,N/A,Rain,Light Freezing Rain,0,2013-12-21 14:52:00
8:55 AM,32.0,32.0,100,29.68,3.0,Calm,Calm,-,N/A,Rain,Light Freezing Rain,0,2013-12-21 14:55:00
8:58 AM,31.3,31.1,99,29.71,2.5,Calm,Calm,-,0.04,Rain,Light Freezing Rain,0,2013-12-21 14:58:00
9:03 AM,32.0,32.0,100,29.68,2.0,Calm,Calm,-,N/A,Rain,Light Freezing Rain,0,2013-12-21 15:03:00
9:08 AM,32.0,32.0,100,29.68,1.5,Calm,Calm,-,N/A,Rain,Light Freezing Rain,0,2013-12-21 15:08:00
9:18 AM,32.0,32.0,100,29.67,2.0,Calm,Calm,-,N/A,Rain,Light Freezing Rain,0,2013-12-21 15:18:00
9:19 AM,32.0,32.0,100,29.67,2.0,Calm,Calm,-,N/A,Rain,Light Freezing Rain,0,2013-12-21 15:19:00
9:24 AM,32.0,32.0,100,29.67,3.0,Calm,Calm,-,N/A,Rain,Light Freezing Rain,0,2013-12-21 15:24:00
9:34 AM,32.0,32.0,100,29.66,4.0,Calm,Calm,-,N/A,Rain,Light Freezing Rain,0,2013-12-21 15:34:00
9:44 AM,32.0,32.0,100,29.65,4.0,Calm,Calm,-,N/A,Rain,Light Freezing Rain,0,2013-12-21 15:44:00
9:58 AM,31.5,31.1,99,29.69,4.0,Calm,Calm,-,0.06,Rain,Light Freezing Rain,0,2013-12-21 15:58:00
10:23 AM,32.0,32.0,100,29.67,2.0,Calm,Calm,-,N/A,Rain,Light Freezing Rain,0,2013-12-21 16:23:00
10:27 AM,32.0,32.0,100,29.67,1.8,Calm,Calm,-,N/A,Rain,Light Freezing Rain,0,2013-12-21 16:27:00
10:28 AM,32.0,32.0,100,29.66,1.5,Calm,Calm,-,N/A,Rain,Light Freezing Rain,0,2013-12-21 16:28:00
10:31 AM,32.0,32.0,100,29.66,1.5,Calm,Calm,-,N/A,Rain,Light Freezing Rain,0,2013-12-21 16:31:00
10:36 AM,32.0,32.0,100,29.64,1.8,Calm,Calm,-,N/A,Rain,Light Freezing Rain,0,2013-12-21 16:36:00
10:37 AM,32.0,32.0,100,29.65,1.8,Calm,Calm,-,N/A,Rain,Light Freezing Rain,0,2013-12-21 16:37:00
10:42 AM,32.0,32.0,100,29.63,2.5,Calm,Calm,-,N/A,Rain,Light Freezing Rain,0,2013-12-21 16:42:00
10:52 AM,32.0,32.0,100,29.65,3.0,Calm,Calm,-,N/A,Rain,Light Freezing Rain,0,2013-12-21 16:52:00
10:57 AM,32.0,32.0,100,29.67,3.0,Calm,Calm,-,N/A,Rain,Light Freezing Rain,0,2013-12-21 16:57:00
10:58 AM,31.5,31.5,100,29.70,3.0,Calm,Calm,-,0.02,Rain,Light Freezing Rain,0,2013-12-21 16:58:00
11:13 AM,32.0,32.0,100,29.64,3.0,Calm,Calm,-,N/A,Rain,Light Freezing Rain,0,2013-12-21 17:13:00
11:18 AM,32.0,32.0,100,29.64,2.5,Calm,Calm,-,N/A,Rain,Light Freezing Rain,0,2013-12-21 17:18:00
11:23 AM,32.0,32.0,100,29.65,2.0,Calm,Calm,-,N/A,Rain,Light Freezing Rain,0,2013-12-21 17:23:00
11:33 AM,32.0,32.0,100,29.63,2.5,Calm,Calm,-,N/A,Rain,Light Freezing Rain,0,2013-12-21 17:33:00
11:38 AM,32.0,32.0,100,29.64,2.5,Calm,Calm,-,N/A,,Light Freezing Drizzle,0,2013-12-21 17:38:00
11:48 AM,32.0,32.0,100,29.64,2.0,Calm,Calm,-,N/A,,Light Freezing Drizzle,0,2013-12-21 17:48:00
11:53 AM,32.0,32.0,100,29.63,2.5,Calm,Calm,-,N/A,,Light Freezing Drizzle,0,2013-12-21 17:53:00
11:58 AM,31.5,31.5,100,29.66,2.5,Calm,Calm,-,0.00,,Light Freezing Drizzle,0,2013-12-21 17:58:00
12:03 PM,32.0,32.0,100,29.63,2.5,Calm,Calm,-,N/A,,Light Freezing Drizzle,0,2013-12-21 18:03:00
12:04 PM,32.0,32.0,100,29.64,2.5,Calm,Calm,-,N/A,,Light Drizzle,0,2013-12-21 18:04:00
12:14 PM,32.0,32.0,100,29.62,2.5,Calm,Calm,-,N/A,,Overcast,0,2013-12-21 18:14:00
12:19 PM,32.0,32.0,100,29.61,2.5,Calm,Calm,-,N/A,,Overcast,0,2013-12-21 18:19:00
12:58 PM,31.6,31.6,100,29.64,2.0,Calm,Calm,-,0.00,,Overcast,0,2013-12-21 18:58:00
1:03 PM,32.0,32.0,100,29.61,2.0,Calm,Calm,-,N/A,,Overcast,0,2013-12-21 19:03:00
1:15 PM,32.0,32.0,100,29.62,2.0,Calm,Calm,-,N/A,,Overcast,0,2013-12-21 19:15:00
1:20 PM,32.0,32.0,100,29.61,2.5,Calm,Calm,-,N/A,,Overcast,0,2013-12-21 19:20:00
1:35 PM,32.0,32.0,100,29.60,2.5,Calm,Calm,-,N/A,,Overcast,0,2013-12-21 19:35:00
1:40 PM,32.0,32.0,100,29.59,2.5,Calm,Calm,-,N/A,,Overcast,0,2013-12-21 19:40:00
1:48 PM,32.0,32.0,100,29.58,3.0,Calm,Calm,-,N/A,,Overcast,0,2013-12-21 19:48:00
1:58 PM,31.6,31.6,100,29.62,2.5,Calm,Calm,-,0.00,,Overcast,0,2013-12-21 19:58:00
2:08 PM,32.0,32.0,100,29.60,3.0,Calm,Calm,-,N/A,,Overcast,0,2013-12-21 20:08:00
2:13 PM,32.0,32.0,100,29.60,3.0,Calm,Calm,-,N/A,,Overcast,0,2013-12-21 20:13:00
2:43 PM,32.0,32.0,100,29.60,3.0,Calm,Calm,-,N/A,,Overcast,0,2013-12-21 20:43:00
2:58 PM,31.8,31.8,100,29.63,3.0,Calm,Calm,-,N/A,,Overcast,0,2013-12-21 20:58:00
3:08 PM,32.0,32.0,100,29.60,2.5,Calm,Calm,-,N/A,,Overcast,0,2013-12-21 21:08:00
3:18 PM,32.0,32.0,100,29.59,3.0,Calm,Calm,-,N/A,,Overcast,0,2013-12-21 21:18:00
3:43 PM,32.0,32.0,100,29.61,4.0,Calm,Calm,-,N/A,,Overcast,0,2013-12-21 21:43:00
3:58 PM,32.4,32.4,100,29.64,4.0,Calm,Calm,-,N/A,,Overcast,0,2013-12-21 21:58:00
4:03 PM,32.0,32.0,100,29.62,4.0,Calm,Calm,-,N/A,,Overcast,0,2013-12-21 22:03:00
4:13 PM,32.0,32.0,100,29.61,4.0,Calm,Calm,-,N/A,,Overcast,0,2013-12-21 22:13:00
4:58 PM,32.4,32.0,99,29.66,4.0,Calm,Calm,-,N/A,,Overcast,0,2013-12-21 22:58:00
5:03 PM,32.0,32.0,100,29.64,4.0,Calm,Calm,-,N/A,,Overcast,0,2013-12-21 23:03:00
5:43 PM,32.0,32.0,100,29.64,6.0,Calm,Calm,-,N/A,,Overcast,0,2013-12-21 23:43:00
5:58 PM,31.6,31.5,99,29.68,6.0,Calm,Calm,-,N/A,,Overcast,0,2013-12-21 23:58:00
6:08 PM,32.0,32.0,100,29.66,6.0,Calm,Calm,-,N/A,,Overcast,0,2013-12-22 00:08:00
6:23 PM,32.0,32.0,100,29.67,6.0,Calm,Calm,-,N/A,,Overcast,0,2013-12-22 00:23:00
6:38 PM,32.0,32.0,100,29.67,6.0,Calm,Calm,-,N/A,,Overcast,0,2013-12-22 00:38:00
6:58 PM,31.3,30.9,99,29.70,6.0,Calm,Calm,-,N/A,,Overcast,0,2013-12-22 00:58:00
7:33 PM,32.0,32.0,100,29.69,6.0,Calm,Calm,-,N/A,,Overcast,0,2013-12-22 01:33:00
7:58 PM,31.1,29.8,95,29.75,6.0,Calm,Calm,-,N/A,,Overcast,0,2013-12-22 01:58:00
8:48 PM,32.0,28.4,87,29.76,6.0,Calm,Calm,-,N/A,,Overcast,0,2013-12-22 02:48:00
8:56 PM,32.0,30.2,93,29.77,6.0,Calm,Calm,-,N/A,,Overcast,0,2013-12-22 02:56:00
8:58 PM,31.3,29.5,93,29.80,6.0,Calm,Calm,-,N/A,,Overcast,0,2013-12-22 02:58:00
9:28 PM,32.0,32.0,100,29.79,6.0,Calm,Calm,-,N/A,,Overcast,0,2013-12-22 03:28:00
9:40 PM,32.0,32.0,100,29.80,6.0,North,-9999.0,-,N/A,,Overcast,0,2013-12-22 03:40:00
9:45 PM,32.0,32.0,100,-9999,-9999.0,North,-9999.0,-,N/A,,Overcast,0,2013-12-22 03:45:00